Powrót do katalogu

STARLINK-35018

AktywnyŁącznośćSSO
NORAD 65288·PAYLOAD·🇺🇸 United States

Wystrzelony Aug 22, 2025 z Vandenberg Space Force Base

Loading…

Następne Przeloty (najbliższe 24 godziny)

TLE

ŚwieżeSource: CelesTrak SupGP

Epoka: Sep 14, 2026, 21:21 UTC

1 65288C 25184R   26257.89006944 -.00030477  00000+0 -94638-3 0  2573
2 65288  97.2835 305.9153 0001105  89.1197 243.8305 15.33444305    11

Śledź STARLINK-35018 w czasie rzeczywistym z AllMySat

Download on the App Store